Location: Newark
(41.6478°N, 9.0078°E)
Time: 02:42:17
(UTC+00:00)

NOAA 15 - Visible Passes

Search period start: 22 January 2020 00:00
Search period end: 01 February 2020 00:00
Orbit: 798 x 812 km, 98.7° (Epoch: 21 January)

Date Brightness Start Highest point End Pass type
(mag) Time Alt. Az. Time Alt. Az. Time Alt. Az.
22 Jan 7.3 05:54:10 10° NE 05:58:26 24° E 06:02:40 10° SSE visible
22 Jan 5.0 17:14:09 10° SE 17:18:58 39° ENE 17:23:51 10° N visible
22 Jan 6.6 18:54:27 10° SSW 18:58:50 27° W 19:03:15 10° NW visible
23 Jan 7.7 05:30:22 10° ENE 05:33:04 14° E 05:35:47 10° ESE visible
23 Jan 5.6 16:49:59 10° ESE 16:54:06 24° ENE 16:58:16 10° NNE visible
23 Jan 5.7 18:28:34 10° S 18:33:35 45° W 18:38:39 10° NNW visible
24 Jan 4.7 18:03:11 10° S 18:08:26 77° WSW 18:13:44 10° NNW visible
25 Jan 4.5 17:38:11 10° SSE 17:43:23 64° ENE 17:48:37 10° N visible
25 Jan 7.4 19:20:26 10° SW 19:23:35 16° W 19:26:46 10° NW visible
26 Jan 7.3 05:53:38 10° NE 05:57:52 24° E 06:02:04 10° SSE visible
26 Jan 5.1 17:13:36 10° SE 17:18:25 38° ENE 17:23:17 10° N visible
26 Jan 6.6 18:53:50 10° SSW 18:58:15 27° W 19:02:43 10° NW visible
27 Jan 7.8 05:29:51 10° ENE 05:32:30 14° E 05:35:08 10° ESE visible
27 Jan 5.7 18:27:59 10° S 18:33:01 46° W 18:38:06 10° NNW visible
28 Jan 4.7 18:02:37 10° S 18:07:52 78° WSW 18:13:11 10° NNW visible
29 Jan 4.6 17:37:38 10° SSE 17:42:49 63° ENE 17:48:03 10° N visible
29 Jan 7.4 19:19:48 10° SW 19:23:01 16° W 19:26:16 10° NW visible
30 Jan 7.4 05:53:06 10° NE 05:57:18 23° E 06:01:29 10° SE visible
30 Jan 5.1 17:13:02 10° SE 17:17:52 38° ENE 17:22:43 10° N visible
30 Jan 6.6 18:53:15 10° SSW 18:57:41 27° W 19:02:10 10° NW visible
31 Jan 7.8 05:29:21 10° ENE 05:31:56 14° E 05:34:30 10° ESE visible
31 Jan 5.6 18:27:24 10° S 18:32:27 46° W 18:37:33 10° NNW visible
